[Iaude] MPEC A24: 2017 AV3 [a=1.60,e=0.52,i=36.8,H=19.5]

mpec at si.edu mpec at si.edu
Thu Jan 5 18:34:12 EST 2017


M.P.E.C. 2017-A24                                Issued 2017 Jan. 5, 23:30 UT
 
     The Minor Planet Electronic Circulars contain information on unusual
         minor planets and routine data on comets.  They are published
    on behalf of Division F of the International Astronomical Union by the
          Minor Planet Center, Smithsonian Astrophysical Observatory,
                          Cambridge, MA 02138, U.S.A.

             Prepared using the Tamkin Foundation Computer Network

                              MPC at CFA.HARVARD.EDU
            URL http://www.minorplanetcenter.net/    ISSN 1523-6714


                                   2017 AV3
 
Observations:
     K17A03V* C2017 01 02.33042 05 07 00.654-27 58 21.26         21.7 wLEA024F51
     K17A03V  C2017 01 02.33171 05 07 00.575-27 58 17.34         21.9 wLEA024F51
     K17A03V  C2017 01 02.34077 05 06 59.814-27 57 53.09         21.8 wLEA024F51
     K17A03V  C2017 01 02.34205 05 06 59.724-27 57 49.31         21.7 wLEA024F51
     K17A03V  C2017 01 02.35109 05 06 58.974-27 57 24.98         21.5 wLEA024F51
     K17A03V  C2017 01 02.35238 05 06 58.851-27 57 21.44         21.7 wLEA024F51
     K17A03V  C2017 01 02.36273 05 06 58.003-27 56 53.36         21.6 wLEA024F51
     K17A03V _C2017 01 03.40438805 05 37.706-27 09 49.49         21.1 GUEA024568
     K17A03V _C2017 01 03.40542105 05 37.624-27 09 46.54         21.3 GUEA024568
     K17A03V _C2017 01 03.40646005 05 37.543-27 09 43.66         21.2 GUEA024568
     K17A03V KC2017 01 04.52226 05 04 16.67 -26 19 10.6          21.8 RtEA024474
     K17A03V KC2017 01 04.52930 05 04 16.11 -26 18 51.0                tEA024474
     K17A03V KC2017 01 04.53634 05 04 15.62 -26 18 31.8          21.5 RtEA024474
     K17A03V |C2017 01 05.12416 05 03 35.33 -25 52 04.4          22.3 VuEA024807
     K17A03V |C2017 01 05.12884 05 03 35.04 -25 51 51.6          21.8 VuEA024807
     K17A03V |C2017 01 05.13365 05 03 34.69 -25 51 38.7          21.7 VuEA024807
 
Observer details:
474 Mount John Observatory, Lake Tekapo.  Observers A. C. Gilmore,
    P. M. Kilmartin.  Measurer P. M. Kilmartin.  1.0-m f/7.7 reflector + CCD.
568 Mauna Kea.  Observers R. J. Wainscoat, D. Woodworth.  Measurer M. Micheli.
    3.6-m Canada-France-Hawaii Telescope + CCD.
807 Cerro Tololo.  Observers T. Linder, R. Holmes.  0.61-m f/6.5 astrograph
    + CCD.
F51 Pan-STARRS 1, Haleakala.  Observers B. Gibson, T. Goggia, S. Kahale,
    T. Lowe, A. Schultz, M. Willman.  Measurers K. Chambers, S. Chastel,
    L. Denneau, H. Flewelling, M. Huber, E. Lilly, E. Magnier, R. Wainscoat,
    C. Waters, R. Weryk.  1.8-m Ritchey-Chretien + CCD.
 
Orbital elements:
2017 AV3                                                 Earth MOID = 0.2297 AU
Epoch 2017 Feb. 16.0 TT = JDT 2457800.5                 MPC
M  84.05869              (2000.0)            P               Q
n   0.48782974     Peri.  194.25025     +0.75280972     +0.45970705
a   1.5981733      Node   128.05993     -0.53002230     +0.84775453
e   0.5153737      Incl.   36.75107     -0.39032536     -0.26454051
P   2.02           H   19.5           G   0.15           U   8
Residuals in seconds of arc
170102 F51  0.4-  0.3-    170102 F51  0.2+  0.1+    170104 474  0.2-  0.3+
170102 F51  0.1-  0.1+    170103 568  0.1+  0.2-    170105 807  0.3-  0.1-
170102 F51  0.1-  0.1-    170103 568  0.1+  0.0     170105 807  0.3+  0.0
170102 F51  0.1+  0.2+    170103 568  0.1+  0.0     170105 807  0.3+  0.1-
170102 F51  0.2+  0.0     170104 474  0.1+  0.3-
170102 F51  0.0   0.1+    170104 474  0.5-  0.2+

Ephemeris:
2017 AV3                 a,e,i = 1.60, 0.52, 37                  q = 0.7745
Date    TT    R. A. (2000) Decl.     Delta      r     Elong.  Phase     V
2016 12 06    06 09 07.3 -45 57 57   0.7530  1.4240   109.3    40.8    21.3
...
2016 12 21    05 28 42.7 -37 00 01   0.7940  1.5363   119.2    34.0    21.3
...
2016 12 29    05 13 23.0 -31 13 08   0.8337  1.5936   122.4    31.4    21.5
...
2017 01 04    05 04 54.2 -26 42 50   0.8732  1.6352   123.4    30.1    21.6
2017 01 05    05 03 43.9 -25 57 43   0.8807  1.6421   123.4    30.0    21.6
2017 01 06    05 02 37.6 -25 12 41   0.8884  1.6489   123.4    29.8    21.6
...
2017 01 12    04 57 19.7 -20 46 19   0.9395  1.6890   122.9    29.3    21.8
...
2017 01 20    04 53 27.8 -15 09 00   1.0206  1.7407   120.5    29.1    22.0
...
2017 02 04    04 54 12.4 -05 57 01   1.2080  1.8323   112.9    29.7    22.5

A. U. Tomatic                (C) Copyright 2017 MPC           M.P.E.C. 2017-A24




More information about the Iaude mailing list